Theta_e
287 287 287 287 287 287 286 286 286 286 286 286 286 286 285 284 284 283 282 282 282 282 282 282 282 281 281 281 281 281 281 281 281 280 280 280 280 280 280 280 280 279 279 279 279 278 278 278 278 278 278 278 279 279 279 280 280 280 281 281 282 283 283 284 285 285 286 285 285 285 285 285 285 285 285 285 286 286 286 286 286 285 285 286 286
287 287 287 287 287 286 286 286 286 286 286 286 285 285 284 283 282 282 282 281 281 281 281 281 280 280 280 280 280 280 280 280 280 280 280 279 279 279 279 279 278 278 278 278 277 277 277 277 276 277 277 278 278 278 279 279 279 280 280 281 281 282 282 283 284 284 285 285 285 284 284 284 284 285 285 285 285 285 285 285 285 285 285 285 285
287 287 287 287 286 286 286 286 286 286 286 285 284 284 283 283 282 282 281 281 281 281 280 280 280 280 279 279 279 279 279 279 279 279 279 278 278 278 278 278 277 277 277 276 276 275 275 275 275 276 276 276 277 277 278 278 279 279 280 280 280 281 281 282 282 283 283 284 284 284 284 284 284 284 284 284 284 285 285 285 285 285 285 285 285
287 287 287 287 287 286 286 286 286 285 285 285 284 283 283 282 282 281 281 281 281 281 280 280 279 279 279 279 279 278 278 278 278 278 278 278 277 277 277 277 276 276 275 275 275 274 274 274 274 274 275 275 275 276 276 277 277 278 278 279 279 280 280 281 281 282 282 282 283 283 283 283 283 283 283 283 284 284 284 284 285 285 285 285 285
287 287 287 287 287 286 286 286 285 285 285 284 283 283 282 282 281 281 281 281 280 280 279 279 279 279 278 278 278 278 278 278 278 278 277 277 277 277 277 277 277 276 275 275 274 273 273 273 273 274 274 274 274 275 275 276 276 276 277 277 278 279 279 280 280 281 281 281 282 282 282 282 282 283 283 283 283 284 284 284 285 285 285 285 286
287 287 287 287 286 286 286 286 285 285 284 284 283 282 282 281 281 281 280 280 280 279 279 279 278 278 278 278 277 277 277 277 277 277 277 277 277 277 277 277 276 276 275 274 274 273 273 273 273 273 273 274 274 274 274 275 275 275 276 277 277 278 278 279 279 280 280 281 281 281 282 282 282 282 282 283 283 284 284 284 284 285 285 285 285
287 287 287 286 286 286 286 285 285 285 284 283 283 282 282 282 281 281 280 279 279 279 278 278 278 278 277 277 277 277 277 277 277 276 276 276 276 276 275 275 274 274 273 273 273 272 272 272 272 272 273 273 273 273 274 274 275 275 276 276 277 277 277 278 278 279 280 280 280 281 281 281 282 282 282 283 283 283 284 284 284 284 284 285 285
287 287 286 286 286 286 285 285 285 284 284 284 283 283 282 282 281 280 280 279 279 278 278 278 278 277 277 277 277 276 276 276 276 276 275 275 274 274 273 272 272 272 272 272 272 271 271 271 271 272 272 272 272 273 273 273 274 274 275 275 276 276 277 277 277 278 279 279 279 280 280 281 281 282 282 282 283 283 283 283 284 284 284 284 285
287 286 286 286 285 285 285 284 284 284 284 284 284 283 282 281 281 280 279 279 278 278 278 277 277 277 277 277 276 276 276 276 275 275 274 273 272 272 271 271 271 271 271 271 271 271 271 271 271 271 271 271 272 272 272 273 273 273 274 274 274 275 275 276 276 277 277 278 279 279 280 280 281 281 281 282 282 282 282 282 283 283 283 284 284
286 286 286 285 285 284 284 284 283 283 283 284 284 283 282 281 280 279 279 278 278 277 277 277 277 277 277 276 276 276 275 275 274 273 273 272 271 271 271 271 271 271 271 271 271 271 271 271 270 270 270 270 270 271 271 272 272 273 273 273 273 274 274 274 275 275 276 277 277 278 279 279 280 280 281 281 282 282 282 282 282 283 283 284 284
286 286 285 284 284 284 284 283 283 283 283 283 283 282 281 280 279 279 278 278 277 277 277 277 276 276 276 276 275 275 275 274 274 273 273 272 270 270 271 271 271 271 270 270 270 270 270 270 269 269 269 269 269 270 270 271 271 271 272 272 273 273 274 274 274 275 275 275 276 276 277 277 278 278 279 279 280 281 281 282 282 283 284 284 284
285 285 284 284 284 284 283 283 283 283 282 282 282 281 280 279 278 278 277 277 277 276 276 276 276 275 275 275 275 274 274 274 273 273 273 271 269 270 271 271 270 270 270 270 270 270 269 269 268 268 268 269 269 269 269 270 270 270 271 271 272 272 273 273 274 274 274 275 275 275 275 276 276 276 277 277 278 278 279 279 280 280 281 282 282
285 284 283 283 283 283 283 282 282 281 281 281 281 280 279 278 277 277 276 276 276 276 275 275 275 275 275 274 274 273 273 273 272 272 272 270 269 270 271 270 270 270 270 269 269 269 268 268 268 268 268 268 269 269 269 269 269 269 270 271 271 271 272 272 273 273 274 274 274 275 275 275 275 276 276 277 277 277 278 278 279 279 279 280 280
284 283 283 283 283 282 282 281 281 280 280 280 280 279 278 277 277 276 276 275 275 275 275 274 274 274 274 273 273 273 273 273 272 271 271 269 269 270 270 270 270 269 268 268 268 268 268 268 268 268 268 268 268 268 269 269 269 270 270 271 271 271 272 272 272 273 273 273 274 274 274 275 275 275 276 276 276 277 277 278 278 279 279 280 280
283 283 282 282 282 281 281 280 280 280 279 279 279 278 277 277 276 276 275 275 274 274 274 274 273 273 273 272 272 272 272 272 271 270 270 268 268 270 270 269 268 268 268 268 268 268 268 268 268 268 268 268 268 269 269 270 270 271 271 271 271 272 272 273 273 273 273 273 274 274 274 274 274 275 275 276 276 277 277 277 278 278 279 280 280
282 282 282 281 281 281 280 279 279 279 278 278 278 277 276 276 275 275 274 274 274 273 273 273 273 272 272 272 271 271 272 272 270 270 269 268 268 269 268 268 268 268 268 268 268 268 268 268 268 268 268 268 269 269 270 271 271 272 272 272 273 273 273 273 273 274 274 274 274 274 274 275 275 275 276 276 277 277 277 277 277 278 278 279 279
282 282 281 281 280 280 279 279 278 278 277 277 277 276 275 275 274 274 274 273 273 273 272 272 272 272 271 271 271 271 272 271 270 269 269 268 267 268 268 268 268 268 268 268 268 268 268 268 268 268 269 269 269 270 271 272 273 273 274 274 274 274 274 273 273 274 274 274 275 275 275 276 276 276 276 276 276 276 276 276 276 276 277 277 278
282 281 280 280 280 279 279 278 277 277 276 276 276 275 275 274 274 273 273 272 272 272 272 272 272 271 271 271 270 271 271 271 269 269 269 268 267 268 268 268 268 268 268 268 269 269 269 269 269 270 270 270 271 271 272 273 274 274 274 274 274 274 274 274 274 274 274 274 275 275 275 275 276 276 276 276 276 276 276 276 276 276 276 276 276
281 280 280 280 279 279 278 277 277 276 276 276 275 275 274 273 273 272 272 272 271 271 271 271 271 271 270 270 270 271 271 271 269 269 268 268 267 268 268 268 268 269 269 269 269 269 269 270 270 270 271 271 272 273 274 274 274 274 274 274 274 274 274 274 274 274 274 274 274 275 275 275 275 275 275 275 275 275 275 275 275 275 275 275 276
280 280 279 279 279 278 277 276 276 275 275 275 274 274 273 273 272 271 271 271 271 271 271 271 271 271 270 270 271 270 270 270 269 268 268 267 267 268 269 269 269 269 269 269 270 270 270 271 271 271 271 272 273 274 274 275 275 275 275 275 275 275 275 275 275 275 275 275 275 275 275 275 274 274 274 274 274 274 274 274 274 275 275 275 275
279 279 279 279 278 277 276 276 275 275 274 274 274 273 272 272 271 271 270 271 271 271 271 271 270 270 270 270 270 270 270 269 268 268 267 267 268 269 269 269 269 270 270 270 271 271 271 271 271 271 272 272 273 274 274 275 275 275 275 275 275 275 275 276 276 275 275 275 275 274 274 274 274 274 273 273 273 273 273 274 274 274 274 274 275
279 279 278 278 277 277 276 275 275 274 274 273 273 272 271 271 270 270 270 270 270 270 270 270 270 270 270 270 270 269 269 268 268 267 266 266 268 269 270 270 271 271 271 271 271 271 271 272 272 272 272 273 274 274 275 275 275 275 275 276 276 276 276 276 275 275 275 274 274 273 273 273 273 273 273 273 273 273 273 273 273 273 274 274 274
278 278 278 277 277 276 275 274 274 274 273 272 272 271 270 270 270 270 270 270 270 270 270 270 270 270 270 269 269 269 268 268 267 266 266 267 268 269 270 270 271 271 271 271 272 272 272 272 272 272 273 274 274 275 275 275 275 275 275 275 275 275 275 274 273 273 273 272 272 272 272 272 272 272 272 272 272 272 272 272 272 272 273 273 273
278 277 277 277 276 275 274 274 273 273 272 271 271 270 270 269 269 269 269 269 269 269 269 269 269 268 268 267 267 267 267 266 266 266 266 267 268 269 270 270 271 271 272 272 272 272 272 272 272 273 274 274 274 275 275 275 274 274 274 274 274 273 272 272 271 271 270 270 271 271 271 271 271 271 271 272 272 272 272 272 272 272 272 272 272
277 277 277 276 275 274 274 273 272 271 271 270 270 269 269 269 269 269 269 269 268 268 268 268 267 266 265 264 264 265 265 265 266 266 267 267 268 269 270 270 271 271 272 272 272 272 272 273 273 273 273 273 273 273 273 273 272 272 272 272 271 270 270 269 269 269 269 270 270 270 271 271 271 271 272 272 272 272 272 272 272 272 273 273 272
277 277 276 275 274 273 273 272 271 270 270 269 269 268 268 268 268 268 268 268 268 268 267 266 265 264 264 263 263 265 265 266 266 267 267 267 268 269 270 270 271 272 272 272 272 272 272 272 272 272 272 272 272 271 270 270 269 269 269 269 268 268 268 268 268 269 269 270 270 271 271 271 271 271 271 272 272 272 272 273 273 273 273 273 273
277 276 275 274 273 273 272 271 270 269 269 268 268 268 268 268 268 268 268 268 267 266 266 265 264 263 263 264 265 266 266 266 267 267 267 268 269 270 271 271 271 271 271 271 271 271 270 270 270 270 270 269 268 268 267 267 267 267 267 267 267 267 268 268 268 269 269 269 270 270 270 271 271 271 271 272 272 272 273 273 273 273 273 274 274
276 275 274 273 273 272 271 270 269 269 268 268 267 267 267 267 267 268 268 267 266 265 264 264 264 264 264 265 266 266 266 267 267 267 268 269 270 271 271 271 271 270 270 270 270 269 269 268 267 267 266 265 265 265 266 266 266 266 266 267 267 266 266 266 267 267 268 268 269 269 270 270 270 271 271 272 272 273 273 273 273 274 274 274 274
275 274 273 272 272 271 270 269 268 268 267 267 267 267 267 267 267 267 268 267 266 265 264 264 264 265 266 266 266 267 267 267 267 268 269 270 271 271 271 271 270 269 269 268 268 267 266 265 264 263 263 263 263 264 264 264 264 264 264 265 264 264 264 264 265 266 267 267 268 268 269 269 269 270 271 272 272 273 273 274 274 274 274 274 274
274 273 272 271 270 269 268 268 267 267 267 266 267 267 267 267 266 266 266 267 266 264 264 265 266 267 267 267 267 267 267 267 268 268 269 270 271 271 270 270 269 268 268 267 265 264 263 263 262 261 262 262 262 263 263 263 262 262 263 263 263 263 263 263 264 265 266 266 267 267 267 268 269 270 271 272 273 273 274 274 274 274 274 275 275
273 272 271 270 269 268 267 267 266 266 266 266 266 266 266 267 267 266 265 265 265 265 265 265 266 267 267 267 267 266 266 267 268 268 269 270 270 270 269 268 267 267 266 265 264 263 261 261 261 261 261 261 261 261 262 261 261 262 262 262 262 262 262 263 263 264 265 265 265 266 267 268 269 270 271 272 272 273 274 274 274 275 275 275 275
273 272 271 269 268 267 267 266 266 266 266 265 265 265 265 266 267 267 266 265 265 265 265 264 264 265 265 266 266 266 266 267 267 268 269 269 269 269 268 267 266 265 265 264 264 262 261 260 260 260 260 260 261 261 261 261 261 261 261 261 262 262 262 263 263 264 264 264 265 266 267 267 268 269 270 271 272 272 273 274 274 275 275 275 275
272 271 270 268 267 266 266 266 265 265 265 265 265 265 264 264 264 266 267 266 266 265 265 264 264 264 264 264 265 265 266 266 267 268 269 269 268 268 267 266 265 265 264 264 263 261 260 260 260 260 260 260 260 260 260 261 261 261 261 261 262 262 263 263 263 263 264 264 265 266 267 267 268 269 269 270 270 271 272 273 274 275 275 275 276
270 269 268 267 266 266 265 265 265 264 264 264 264 264 264 263 261 261 262 265 266 266 266 265 264 264 264 263 264 264 265 266 267 268 268 267 267 266 265 265 265 265 264 263 262 260 260 260 260 260 260 260 260 260 260 261 261 261 261 261 262 262 263 263 263 264 264 265 265 266 266 267 267 268 268 269 269 270 271 272 273 274 275 275 276
269 268 267 266 266 265 265 264 264 264 264 264 264 263 263 262 260 259 258 259 262 264 266 266 265 264 264 263 263 264 264 265 266 267 266 265 265 265 265 266 266 266 265 263 262 261 260 260 260 260 260 260 260 260 260 261 261 261 262 262 262 263 263 263 264 264 265 265 266 266 266 266 267 267 267 268 269 269 270 271 272 273 274 275 276
267 267 266 266 265 265 264 264 264 264 263 263 263 263 262 260 259 259 259 259 259 261 263 265 265 265 264 263 263 264 264 264 265 266 265 263 264 264 265 265 264 264 263 262 261 260 260 260 260 260 260 260 260 260 261 261 261 262 262 263 263 263 263 264 264 265 265 265 265 266 266 266 266 267 267 268 268 269 270 271 271 272 274 275 275
267 266 266 265 264 264 263 263 263 263 263 263 263 262 261 260 258 258 259 259 260 260 262 263 263 264 265 264 263 263 263 264 264 264 264 263 263 264 263 263 262 261 262 262 261 260 260 261 261 261 261 261 261 261 261 261 262 262 263 263 263 263 264 264 265 265 265 265 265 266 266 266 266 266 267 267 268 269 269 270 271 272 273 274 275
266 266 265 264 263 263 263 263 263 262 262 263 262 261 260 260 259 259 259 259 260 260 261 262 261 262 263 263 263 262 263 263 263 263 263 263 263 263 263 262 261 261 262 262 262 261 261 261 261 261 261 261 261 261 261 262 262 262 263 263 264 264 265 265 266 266 266 266 266 266 266 266 266 266 266 267 268 268 269 270 270 271 272 273 274
265 265 264 263 263 263 263 263 263 263 263 262 262 261 260 260 259 259 259 259 259 260 261 261 262 262 262 261 261 262 262 262 262 262 263 263 263 263 262 262 262 262 262 262 262 261 261 262 262 261 261 261 261 262 262 262 262 263 263 263 264 265 266 266 266 266 266 266 266 266 266 266 266 266 266 267 267 268 269 269 269 270 271 272 273
265 264 263 262 262 262 263 263 263 263 262 262 261 260 260 260 260 260 259 259 259 260 261 261 262 263 262 261 261 261 261 261 262 261 262 263 263 262 262 262 262 262 261 261 261 261 261 262 262 261 261 262 262 262 262 262 263 263 263 263 264 265 266 266 266 266 266 266 266 266 266 266 266 266 266 267 267 268 268 268 269 269 270 271 272
264 263 263 262 262 262 262 262 263 262 262 261 261 260 261 260 260 260 259 259 259 260 261 262 263 263 262 261 261 261 261 261 261 261 262 262 262 262 262 261 261 261 261 261 261 261 262 262 262 262 262 262 262 262 263 263 263 263 263 263 264 265 266 266 267 266 266 266 265 265 265 265 266 266 266 266 267 267 267 268 268 269 270 270 271
263 263 263 262 262 262 262 262 262 262 261 261 261 261 261 260 260 260 259 259 260 260 260 262 263 263 262 262 261 261 261 261 261 262 262 262 262 262 262 261 261 261 261 261 261 262 262 262 263 263 263 263 263 263 263 263 263 263 263 263 264 265 266 266 267 266 266 265 265 265 265 265 265 265 266 266 266 267 267 268 268 269 269 270 270
262 263 262 262 262 262 262 262 261 261 261 261 261 261 260 260 260 260 260 260 260 260 260 261 262 263 263 263 262 261 261 262 262 262 262 262 262 262 262 262 262 262 262 262 262 262 262 262 263 263 263 263 263 263 263 263 263 263 263 263 264 265 266 266 266 266 266 265 265 265 265 265 265 265 265 266 266 266 266 267 267 268 269 269 270
262 262 262 262 262 262 262 261 261 261 261 261 260 260 260 260 260 260 260 260 260 260 260 261 261 262 263 263 262 262 262 262 262 262 262 263 263 262 262 262 262 263 263 263 262 262 262 262 263 263 263 263 263 263 263 263 264 264 264 263 264 265 266 266 266 266 266 265 265 265 265 265 265 265 265 265 265 265 266 266 267 267 268 269 270
262 262 262 262 262 261 261 261 261 261 260 260 260 260 260 260 260 260 260 260 260 260 260 261 261 261 262 262 262 262 262 262 262 262 262 262 262 262 262 262 263 263 263 263 263 263 262 262 262 263 263 263 263 263 263 263 263 264 264 264 264 264 265 266 266 266 266 266 265 265 265 265 265 265 265 265 265 265 265 266 266 267 268 269 269
262 262 262 261 261 261 261 261 261 260 260 260 260 261 260 260 260 260 260 260 260 260 260 260 261 261 261 261 262 262 262 262 262 262 262 262 262 262 262 262 262 263 263 263 263 263 262 262 262 262 263 263 263 263 263 263 263 264 264 264 264 264 265 266 266 266 266 266 265 265 266 266 266 266 265 265 265 266 266 266 266 266 267 268 268
262 261 261 261 261 261 261 261 260 260 260 260 260 260 261 260 260 260 260 260 260 260 260 260 260 261 261 261 261 261 261 261 261 262 262 262 262 262 262 262 262 262 263 263 263 263 262 262 262 262 262 263 263 263 263 263 263 264 264 264 264 265 265 266 266 267 266 266 266 266 265 265 266 266 266 266 266 266 267 267 267 267 267 267 268
262 261 261 261 261 260 260 260 260 260 260 260 260 260 260 260 260 260 260 260 260 260 260 260 260 260 260 260 261 261 261 261 261 261 261 261 261 261 261 261 262 262 262 262 262 262 262 262 262 262 262 263 263 263 263 263 264 264 264 264 264 265 265 266 266 267 267 266 266 265 265 265 265 266 266 267 266 266 267 267 267 267 267 267 267
261 261 261 260 260 260 260 260 260 260 260 260 260 260 260 260 260 260 260 260 260 260 260 260 261 261 261 260 261 261 261 261 261 261 261 261 261 261 261 261 261 262 262 262 262 262 262 262 262 262 262 262 262 263 263 263 263 264 264 264 264 264 265 265 266 266 267 266 266 265 265 265 265 265 266 266 266 266 266 266 267 267 267 267 267
261 260 260 260 260 260 260 260 260 260 260 260 260 260 260 260 261 261 261 260 260 261 261 261 261 261 261 261 261 261 261 261 261 261 261 261 261 261 261 261 261 261 262 262 262 262 262 262 262 262 262 262 262 262 263 263 263 263 264 264 264 264 265 265 266 266 267 267 266 266 265 265 265 265 265 266 266 266 266 266 266 266 267 267 267
260 260 260 260 260 260 260 260 260 261 261 260 260 260 260 260 261 261 261 261 261 261 261 261 261 261 261 260 260 260 261 261 261 261 261 261 261 260 261 261 261 261 261 261 262 262 262 262 262 262 262 262 262 262 262 263 263 263 263 264 264 264 265 265 266 266 266 267 267 266 266 265 265 265 265 265 265 266 266 266 266 266 266 266 266
Wind_Speed
14 13 13 11 10 10 9 8 7 7 8 10 12 13 13 14 15 15 15 15 16 16 17 17 18 19 20 21 22 22 23 24 24 25 25 26 26 26 27 27 27 27 27 28 27 26 26 25 25 25 24 24 24 23 23 24 23 23 22 20 20 18 18 18 17 21 24 22 26 33 32 32 35 33 31 32 30 29 31 32 32 33 33 32 31
13 12 12 10 8 8 6 5 6 6 7 9 10 12 13 14 15 15 16 17 18 18 19 19 19 20 20 21 21 22 23 24 24 25 26 26 27 27 27 27 27 28 28 28 27 26 26 25 25 24 23 22 22 21 22 22 20 22 21 19 20 19 17 19 20 22 25 22 21 27 29 29 32 32 28 30 32 31 32 34 34 35 35 34 34
13 12 10 9 7 6 4 3 3 5 7 9 11 13 15 16 17 17 18 19 19 20 21 21 21 22 22 23 23 24 25 25 26 26 27 27 27 27 27 27 27 27 27 27 27 26 25 24 23 22 22 22 21 19 19 19 18 19 21 19 20 21 19 19 21 23 27 27 23 22 23 23 28 32 30 30 32 32 33 35 34 33 34 33 33
12 11 9 7 5 4 2 2 3 6 9 11 13 14 15 16 16 17 17 18 19 20 21 22 22 23 24 24 25 25 25 26 26 27 26 27 27 27 27 27 27 27 26 26 26 25 25 24 22 22 22 22 21 19 17 18 17 18 21 20 20 22 21 20 22 24 26 29 27 23 22 22 25 29 31 32 34 33 33 33 33 32 33 32 32
12 11 8 6 5 4 2 2 4 7 9 11 12 13 14 15 16 17 18 19 20 21 21 22 23 23 24 24 24 24 24 25 26 26 26 26 26 27 27 28 27 27 27 27 26 25 25 24 23 22 21 21 20 19 17 18 19 19 20 21 20 21 22 21 22 24 26 29 31 27 24 24 24 25 26 29 32 32 29 28 29 30 31 31 32
12 11 9 7 5 3 1 2 5 7 9 11 13 14 16 17 18 20 20 21 22 23 23 24 24 24 24 24 25 25 25 25 26 26 26 26 26 27 27 27 28 28 28 28 27 26 26 25 24 21 19 19 20 20 20 20 20 20 20 21 20 21 22 23 22 23 25 29 31 29 27 26 25 24 23 22 25 28 27 26 26 26 28 30 31
12 11 9 7 5 2 0 2 5 7 10 12 14 16 18 19 20 21 22 22 23 24 24 24 24 24 25 25 25 25 25 26 26 25 26 26 27 27 27 28 28 28 28 28 26 25 25 25 24 21 19 19 20 21 21 21 20 20 20 20 20 21 22 23 22 22 24 26 28 28 27 26 25 25 23 21 23 25 24 24 26 25 24 24 27
13 12 10 7 5 3 1 3 6 8 11 13 15 17 18 19 20 21 21 22 23 23 24 24 24 24 24 24 24 24 24 25 25 25 26 26 26 26 26 26 26 26 26 26 23 22 22 21 19 18 17 18 19 20 21 21 22 23 21 20 21 22 22 23 22 22 23 25 27 28 27 26 24 23 22 20 21 22 20 20 25 27 24 22 26
14 12 9 7 5 3 1 3 5 8 10 12 14 16 18 19 20 20 21 22 23 23 23 23 24 24 24 24 25 25 24 24 24 24 24 24 24 24 25 25 23 22 22 21 20 19 19 17 15 15 17 19 20 21 21 21 22 23 23 21 21 23 23 23 23 23 23 24 26 26 25 24 23 22 21 20 20 22 23 22 26 29 27 26 27
14 11 9 8 5 3 2 3 5 7 10 12 14 16 17 18 19 20 21 22 22 23 23 23 23 24 24 24 25 25 24 24 23 22 21 20 21 22 22 21 19 18 19 19 19 18 17 17 17 18 20 21 21 21 21 21 21 22 22 22 22 23 24 24 23 23 24 25 26 25 24 24 23 21 21 21 21 23 25 25 25 28 27 25 25
14 12 10 8 6 3 2 4 6 8 10 12 14 16 17 18 19 20 21 21 22 22 22 22 22 23 23 24 25 25 24 24 23 22 20 19 18 19 19 18 17 17 17 18 19 19 18 17 19 20 20 20 20 20 21 21 21 22 22 22 22 22 23 24 24 23 23 24 26 26 25 26 26 24 24 24 23 23 25 23 22 25 25 21 21
14 12 10 8 5 4 4 5 7 9 11 13 15 16 17 18 19 20 21 21 21 21 22 22 22 23 23 24 24 24 24 23 22 21 21 19 17 17 18 18 18 18 17 18 19 18 18 17 18 19 19 19 20 21 21 21 21 21 22 21 21 21 21 22 24 24 24 25 27 27 25 26 27 26 25 25 26 26 27 27 25 25 26 24 23
14 12 10 8 5 4 5 6 8 10 11 13 15 16 17 18 19 20 21 21 21 21 21 22 22 23 23 24 25 25 24 23 22 21 21 19 17 17 18 18 18 18 17 18 18 17 17 18 19 19 19 19 21 21 21 21 21 21 20 20 21 21 21 22 24 25 26 26 27 28 25 24 26 25 23 23 26 26 26 26 26 25 27 27 29
15 12 9 7 5 5 6 8 9 11 12 14 15 16 18 18 19 20 21 21 21 22 22 23 23 23 24 24 25 25 24 23 22 21 20 18 17 17 18 18 18 17 17 17 17 16 16 17 19 21 21 20 21 21 21 22 22 21 22 24 25 25 25 26 26 26 26 25 26 29 27 25 27 28 25 24 25 27 27 27 27 26 29 32 33
14 12 9 7 6 6 7 8 10 11 13 14 15 17 18 18 19 20 21 21 21 22 22 23 23 24 24 24 25 25 24 22 22 21 19 17 17 17 17 16 16 16 16 16 17 16 16 18 20 21 21 22 22 23 23 23 24 25 27 29 31 30 29 30 27 24 24 24 26 29 29 28 28 29 28 26 27 28 30 31 30 29 30 33 34
14 11 9 8 7 7 8 9 11 12 13 14 16 17 18 18 19 20 21 21 21 22 22 23 24 24 24 24 25 25 24 22 21 20 18 16 17 17 16 15 16 16 16 17 17 17 16 17 19 21 22 25 26 26 25 25 26 29 30 31 31 30 30 30 27 24 26 28 30 31 31 30 30 30 29 28 28 29 31 31 28 25 25 26 27
14 12 10 9 8 9 9 10 11 12 13 15 16 17 17 18 19 20 21 21 22 22 23 24 24 25 24 24 24 26 25 23 21 20 17 15 16 17 16 17 17 17 18 20 19 16 16 18 21 23 25 25 26 27 27 27 28 30 30 30 30 30 31 32 32 30 30 32 32 32 32 31 30 31 30 29 29 29 30 29 24 22 22 20 18
15 13 11 9 9 10 10 11 12 13 14 15 17 17 18 18 19 19 20 22 23 23 24 25 25 24 24 23 24 25 26 23 20 19 16 14 16 18 18 18 19 20 21 20 17 17 19 23 24 26 26 25 26 28 28 27 29 29 29 30 31 31 32 35 37 35 33 33 33 34 33 31 30 30 29 29 29 27 27 27 24 24 24 20 18
16 13 11 10 10 11 11 11 13 14 15 16 17 18 18 19 19 20 20 22 23 24 24 26 26 25 24 23 23 23 24 23 20 18 16 15 16 19 19 20 21 21 20 21 22 24 25 26 26 26 26 27 28 29 28 28 30 31 32 31 30 30 32 35 36 35 35 34 33 33 31 28 27 27 26 27 27 26 28 28 27 26 26 24 23
15 13 12 11 10 11 11 12 13 14 16 17 17 17 18 19 19 20 21 22 23 24 24 25 26 25 24 23 22 21 22 22 20 17 16 16 18 19 19 20 22 22 23 26 29 29 27 27 28 27 27 28 29 29 29 29 31 33 33 31 28 29 32 33 31 30 30 28 27 26 26 25 26 26 26 26 26 26 27 27 27 27 26 26 26
15 13 12 11 10 11 12 12 14 15 16 17 18 17 17 19 19 20 21 22 23 24 25 25 26 26 24 23 21 19 19 21 20 19 18 17 18 19 19 21 23 26 27 27 26 26 26 27 28 28 27 28 29 30 31 32 34 34 32 29 29 30 32 31 28 25 24 24 25 25 25 25 27 27 26 26 25 25 25 26 26 27 27 27 26
15 13 12 11 11 11 12 13 14 15 16 17 18 17 17 18 19 20 21 22 23 24 25 25 26 27 25 22 20 19 18 19 20 21 20 19 19 19 19 22 23 24 25 24 24 27 27 26 26 27 28 29 30 32 34 35 34 31 28 26 28 30 29 27 24 22 22 23 24 24 24 25 25 25 25 25 24 24 24 25 26 26 27 28 27
15 13 11 11 11 12 13 14 14 15 16 17 17 17 17 17 18 19 20 22 23 24 24 24 25 26 25 23 21 20 20 20 21 24 23 20 19 20 20 22 22 22 23 25 25 26 26 25 28 29 29 29 32 34 35 33 29 25 25 26 28 28 26 24 23 23 23 23 23 23 24 25 25 25 25 25 25 25 26 26 26 27 27 28 30
14 13 12 11 12 13 14 14 15 15 15 16 16 16 16 17 17 18 19 20 22 23 23 23 24 24 25 24 23 22 22 22 23 24 22 20 20 21 21 22 22 23 24 25 25 25 26 27 29 30 29 30 32 32 31 28 25 24 27 28 29 29 29 29 27 25 23 22 21 21 22 25 26 25 25 26 26 27 28 27 27 28 29 30 31
14 13 12 13 13 14 14 14 14 14 14 15 16 15 16 17 17 17 18 20 21 22 22 22 22 22 22 23 22 22 21 22 23 23 21 19 21 22 22 22 22 23 25 26 26 26 27 27 28 29 29 29 28 26 24 24 25 27 28 28 28 29 28 26 23 21 20 20 20 20 23 25 24 23 24 26 26 26 26 26 27 29 30 30 32
15 14 13 14 15 15 14 14 13 13 14 14 15 15 16 16 17 17 18 19 20 20 21 20 19 19 19 19 20 23 23 24 25 23 21 22 24 24 24 23 23 23 24 24 25 25 26 27 27 27 25 24 23 22 24 26 26 26 24 23 23 23 22 20 19 19 19 20 21 22 24 26 25 25 26 26 25 25 24 22 23 25 26 27 29
16 15 15 15 15 15 14 13 13 13 13 14 14 14 15 16 17 18 18 19 19 19 19 18 17 18 19 19 21 24 25 24 23 22 23 26 27 26 25 25 23 22 22 23 24 25 25 24 23 23 23 22 22 22 22 22 22 21 21 19 18 18 18 18 18 19 20 21 22 24 25 26 26 27 26 25 26 27 27 24 22 22 23 23 25
16 15 15 15 15 14 14 14 13 13 13 13 14 14 14 15 17 17 17 17 17 17 17 16 17 18 19 21 23 24 22 21 20 22 24 26 26 25 25 23 21 21 22 23 23 24 23 22 22 22 21 21 20 19 18 18 18 18 18 18 17 18 19 19 18 18 18 19 20 22 23 24 25 25 25 25 26 28 30 29 26 25 24 22 22
16 15 15 15 14 14 14 13 13 13 13 13 14 13 13 15 17 17 16 15 15 16 17 18 20 21 21 21 20 19 19 20 20 22 23 23 23 23 22 21 21 21 20 21 22 22 22 21 20 19 18 17 17 17 16 17 17 18 18 18 19 19 20 19 18 17 17 18 19 21 22 23 24 24 24 24 25 26 29 28 26 25 24 21 19
17 16 16 15 14 13 13 13 13 13 13 13 14 13 13 13 15 17 16 13 12 13 16 19 20 20 19 18 16 16 19 21 20 20 21 21 21 20 19 18 19 18 17 18 19 18 17 19 19 17 16 16 16 16 17 17 18 19 19 20 20 20 20 19 18 18 19 20 20 21 22 23 23 22 23 23 24 25 25 23 21 21 20 18 18
17 16 15 14 13 13 13 12 12 12 13 13 14 14 14 13 12 14 14 11 9 11 14 16 15 14 14 15 15 16 17 18 18 19 19 19 19 18 17 17 17 15 14 16 17 17 17 18 19 18 16 15 14 15 16 17 18 19 21 23 24 23 21 19 19 20 21 21 21 21 21 22 22 22 23 24 25 25 25 23 20 19 19 20 20
17 16 14 13 13 13 13 12 12 12 12 12 13 14 15 15 13 12 11 10 10 9 9 10 10 10 11 13 14 15 15 15 16 17 17 17 17 16 16 17 16 13 13 14 16 18 18 17 18 18 18 17 17 18 19 19 21 22 23 25 27 27 24 21 21 22 22 22 21 21 21 21 22 23 23 24 24 25 25 23 21 19 18 20 21
16 15 14 13 13 13 12 12 12 12 12 12 12 13 14 14 15 14 13 12 11 8 6 7 9 9 10 11 12 13 13 14 15 16 15 16 16 15 17 18 16 13 13 16 17 18 18 17 17 18 18 19 20 22 22 22 23 24 24 24 26 28 28 26 25 24 24 22 20 20 21 21 22 22 23 23 23 23 23 23 23 21 19 19 20
15 14 13 13 12 12 12 12 12 11 11 12 12 13 13 13 13 14 15 16 15 12 8 7 7 7 9 9 9 11 12 13 13 14 14 15 15 15 18 18 15 13 14 17 18 18 19 19 20 20 21 22 22 23 24 25 25 25 26 26 27 28 29 28 27 27 26 23 20 21 22 21 22 23 23 23 23 23 22 23 22 22 21 20 20
15 13 12 12 12 11 11 11 11 11 12 11 12 13 13 12 11 12 14 16 17 18 16 13 8 6 7 8 8 8 10 12 12 12 13 14 14 16 17 17 15 15 17 18 18 18 19 19 20 21 22 23 23 23 25 26 26 26 27 28 29 29 29 29 27 26 25 22 21 22 23 22 23 23 23 23 23 22 22 22 22 22 22 21 21
14 13 13 13 12 11 11 11 11 11 12 11 12 12 12 11 12 13 15 16 17 19 20 18 13 9 6 6 6 6 6 8 10 11 12 12 13 14 15 15 16 17 18 18 18 18 18 18 20 21 22 23 23 24 24 25 26 27 27 28 28 28 28 27 26 24 24 24 24 24 23 24 24 24 23 23 23 22 22 23 23 23 23 23 23
15 14 13 13 12 11 11 11 11 11 11 11 12 12 12 13 14 15 15 16 16 18 19 19 17 13 7 5 7 7 6 5 7 10 11 10 10 11 12 13 15 17 18 18 19 19 19 19 20 21 22 22 23 23 24 25 26 26 27 27 26 26 26 25 23 23 25 27 26 25 24 24 25 24 22 22 22 22 22 23 23 23 24 24 24
15 14 13 12 11 11 11 11 11 11 11 11 12 12 13 14 15 15 15 15 15 17 18 18 18 16 12 8 8 8 9 9 10 11 11 10 9 11 12 13 14 16 17 18 18 19 20 20 20 20 21 21 22 23 24 24 25 26 27 28 26 25 24 24 23 24 25 26 26 26 25 24 24 23 22 21 22 22 22 23 23 23 23 23 22
15 14 13 12 11 11 11 11 11 11 11 11 12 12 13 14 14 14 14 14 15 16 17 17 17 16 14 11 9 9 12 15 15 16 14 12 11 12 13 13 14 15 16 18 18 18 20 20 20 21 21 21 21 22 23 24 25 25 26 27 26 24 24 24 25 26 26 27 27 27 26 25 24 24 22 21 21 22 22 22 23 23 22 22 22
15 13 13 12 11 11 11 11 11 11 11 12 12 12 13 13 14 13 13 14 15 15 16 17 17 15 13 12 10 10 13 17 18 17 16 14 12 12 13 13 15 16 16 17 18 18 19 20 20 21 21 21 21 22 22 23 24 25 26 26 26 26 27 26 26 27 28 29 29 28 28 29 28 25 22 21 20 21 21 22 23 23 22 22 22
14 13 13 12 12 11 11 12 12 11 11 12 12 12 13 13 13 13 13 14 15 15 15 16 16 15 13 11 10 9 13 17 16 15 15 14 13 14 13 13 14 15 16 17 18 18 19 20 20 21 21 21 21 22 22 22 23 24 26 26 26 27 28 27 27 29 30 29 28 28 29 30 27 23 22 22 21 21 22 22 22 22 22 21 21
14 13 13 12 12 12 12 12 11 11 12 12 12 12 12 12 12 12 13 14 14 15 16 16 16 14 13 12 10 10 12 14 14 14 14 14 14 14 14 14 15 15 15 16 17 18 19 20 20 21 20 20 20 21 21 22 22 24 26 26 26 27 28 27 27 30 30 29 28 29 29 29 26 23 23 23 22 21 21 22 22 22 22 21 20
13 13 12 12 12 12 12 12 11 11 12 12 12 12 12 12 12 12 13 14 14 15 16 16 15 14 13 12 11 11 13 13 13 14 14 14 14 15 15 14 15 15 15 16 16 17 19 20 20 21 20 19 18 18 19 20 21 23 24 25 25 26 27 27 28 30 32 32 32 32 31 30 28 26 26 25 22 21 22 22 22 23 24 23 22
12 12 12 12 12 12 12 12 12 12 12 12 12 12 12 12 12 12 13 14 14 15 15 16 15 15 14 14 13 13 14 14 14 14 15 15 15 15 15 15 15 15 16 16 16 17 18 19 20 21 21 19 18 16 15 16 18 20 21 22 23 25 26 27 28 30 32 33 33 33 32 31 29 27 27 26 24 22 22 22 22 23 23 22 22
12 12 12 13 13 13 13 12 12 12 12 12 12 12 12 12 13 13 14 14 15 15 15 15 14 15 15 15 14 14 15 15 15 15 15 16 16 16 16 16 16 16 16 16 16 17 17 18 20 21 21 21 20 18 16 14 15 16 17 19 20 22 25 27 28 29 30 32 32 32 31 30 29 27 26 26 25 23 22 21 21 22 22 20 19
11 12 13 13 13 13 13 12 13 13 13 13 13 13 13 13 14 14 14 15 15 15 15 15 14 15 15 15 15 15 15 16 16 16 16 16 16 16 17 17 17 17 17 17 17 17 17 18 19 20 21 21 21 21 18 16 14 14 15 16 17 19 22 25 26 27 29 31 31 30 30 30 29 27 25 25 25 24 23 22 22 22 20 19 18
12 13 13 13 13 13 13 13 14 14 14 14 14 14 14 14 14 15 15 15 16 16 16 16 16 16 16 16 16 16 16 16 17 17 17 17 17 17 17 18 18 18 18 18 18 18 18 18 19 19 20 21 21 21 20 18 16 15 14 15 16 17 20 23 25 26 28 29 29 29 29 29 29 28 26 25 25 24 23 23 22 21 20 19 18
13 13 13 13 14 14 14 14 14 15 15 15 15 15 15 15 15 16 16 16 16 17 17 17 17 17 17 17 17 17 17 17 18 18 18 18 18 17 18 18 19 19 19 19 19 18 19 19 19 19 20 20 20 21 21 20 18 16 15 15 16 16 17 20 23 25 26 27 27 27 28 28 28 27 26 25 24 23 22 21 21 21 20 19 18
13 13 14 14 14 14 14 14 15 15 15 15 15 16 15 16 16 16 16 16 17 17 17 17 17 17 17 17 17 17 17 17 18 18 18 18 18 18 18 18 19 19 20 20 20 20 19 20 20 20 20 20 20 20 20 20 19 18 16 15 15 15 15 18 21 23 24 25 27 27 27 27 27 26 25 23 23 22 21 20 20 19 19 18 18
13 13 13 14 14 14 14 15 15 15 15 15 16 16 16 16 17 16 16 16 17 17 17 17 17 17 18 18 17 17 17 18 18 18 18 18 18 18 18 19 19 19 20 21 21 21 20 20 20 20 20 21 21 21 20 20 20 19 18 17 16 15 15 16 19 21 22 24 25 27 27 26 25 25 24 23 22 22 21 20 19 18 18 17 17
12 13 13 13 14 14 15 16 17 17 16 17 17 18 18 18 18 17 17 17 17 17 17 17 18 18 18 18 18 18 18 18 18 18 18 18 18 19 19 19 20 20 21 21 21 21 21 21 21 21 21 21 21 21 21 20 20 20 19 18 17 15 14 15 16 17 20 22 23 24 26 25 24 23 23 22 21 20 20 19 18 18 17 16 16
Wind_Direction
137 132 128 126 120 112 105 92 75 56 41 30 23 21 18 14 13 11 6 3 3 2 0 359 357 356 354 352 351 350 350 350 349 349 348 347 346 345 343 342 341 339 338 337 336 334 331 328 326 325 324 321 316 314 312 311 309 305 302 298 291 287 282 274 273 282 283 280 284 290 294 297 297 298 298 299 299 299 299 297 297 297 297 297 297
147 143 140 138 129 118 108 86 63 40 26 20 16 14 11 9 8 5 2 1 0 359 358 358 356 355 354 352 351 351 350 350 349 349 348 346 345 344 343 341 339 337 336 334 333 331 328 325 323 322 321 315 310 308 306 305 303 299 296 294 289 286 282 279 278 283 286 286 284 287 292 295 294 295 296 295 296 297 295 294 295 295 295 295 295
158 155 153 148 137 124 110 81 52 24 14 12 11 10 7 5 3 359 358 356 355 354 354 353 353 352 352 352 351 351 351 351 351 350 348 346 344 343 341 339 338 335 333 331 330 329 325 321 319 318 316 311 306 304 302 299 298 295 292 290 287 285 282 279 278 280 286 289 288 286 290 291 290 292 294 293 293 294 293 293 294 293 293 294 293
167 167 164 157 150 146 129 75 32 9 8 8 6 5 2 359 356 353 352 351 350 350 350 349 349 349 349 349 350 350 350 350 350 348 347 345 342 340 338 337 335 333 331 330 328 327 324 319 317 317 316 312 309 306 304 301 298 295 293 291 287 285 284 279 276 278 283 287 288 286 287 287 286 289 293 294 293 292 291 292 293 292 292 292 292
175 176 176 173 171 165 133 40 12 2 2 3 360 359 358 355 352 350 349 348 348 348 347 347 347 348 348 348 347 347 348 349 348 345 344 342 339 336 334 333 332 331 329 328 327 326 324 321 319 320 318 313 311 309 306 305 302 297 293 291 289 287 286 282 278 277 278 281 285 286 286 285 283 284 287 291 294 294 292 291 291 292 292 291 289
180 183 185 183 180 169 107 5 357 356 358 359 358 356 354 352 350 349 348 347 346 345 345 345 346 346 346 345 345 345 346 347 346 343 341 339 337 334 333 331 330 329 328 327 327 325 325 324 321 320 318 313 311 311 309 307 304 300 296 294 293 290 288 286 283 280 278 279 283 286 287 286 284 283 282 284 289 292 295 297 294 290 289 289 288
184 187 187 184 185 189 255 342 353 357 357 357 356 353 350 348 346 345 344 343 342 341 342 342 343 343 343 343 343 343 345 345 344 342 339 338 337 335 334 332 330 329 328 326 326 325 324 324 321 318 316 312 311 311 311 310 306 302 301 301 299 295 292 290 288 285 282 282 283 285 287 287 285 284 284 284 283 285 291 297 297 293 290 288 288
186 185 186 189 199 214 264 343 355 356 354 353 349 346 344 342 340 339 338 337 337 338 339 338 339 339 339 339 340 340 343 344 343 341 340 340 338 335 332 330 328 326 325 324 323 322 320 320 318 315 313 311 309 308 307 307 306 303 303 303 301 299 296 294 292 289 287 286 285 286 287 288 287 287 289 288 285 283 286 291 292 292 292 290 288
186 186 192 200 209 218 281 343 351 350 348 345 340 338 337 335 334 333 332 332 333 334 335 335 335 335 335 336 337 338 342 343 342 343 343 340 335 331 328 327 324 322 320 319 317 317 317 314 311 310 309 307 305 303 301 301 300 300 301 303 302 300 298 296 295 294 292 290 288 289 289 289 289 292 293 290 286 286 288 289 287 287 289 290 286
189 193 201 206 212 222 280 329 338 338 337 336 334 332 331 329 328 327 327 328 329 330 331 332 332 332 332 333 334 336 340 342 342 342 341 336 331 327 323 320 318 314 313 313 313 312 312 310 307 306 306 305 302 300 300 299 297 296 298 300 301 300 298 297 295 294 293 292 290 292 293 292 293 298 298 296 296 293 287 282 281 285 289 289 286
194 199 205 208 214 234 281 313 325 328 330 331 330 328 326 325 324 323 324 325 326 327 328 328 329 330 331 332 333 335 339 341 339 337 336 335 330 322 315 311 310 309 308 308 308 308 308 307 306 305 305 304 302 300 299 299 298 298 297 298 298 297 297 297 297 295 293 290 289 290 290 291 295 298 298 301 306 305 299 294 293 294 296 294 291
198 201 205 211 221 247 286 308 319 322 325 326 325 324 323 322 322 321 322 323 324 326 327 327 329 330 331 332 332 333 337 338 336 334 333 333 329 318 309 308 306 304 304 303 303 305 305 304 304 302 302 302 302 301 299 298 299 300 300 300 299 298 298 297 297 298 296 293 290 288 289 292 294 294 295 297 299 299 297 296 296 294 295 294 293
200 203 206 216 233 260 289 306 313 316 321 322 321 321 320 320 321 320 321 322 323 325 326 327 329 330 331 332 330 332 337 337 334 333 332 330 324 314 307 303 301 300 300 300 299 300 300 301 301 299 299 300 301 299 298 298 299 299 300 301 300 298 297 296 296 296 294 291 290 289 291 294 294 294 297 299 298 296 293 291 289 287 287 286 284
200 205 209 221 243 270 289 301 308 311 315 316 316 317 317 318 320 319 320 322 323 324 326 326 328 330 331 331 330 331 335 335 333 332 331 327 320 312 305 299 296 295 295 295 295 296 296 296 297 297 298 298 297 296 295 296 297 296 295 295 293 292 292 294 295 292 289 286 285 288 291 292 291 292 296 297 296 292 289 287 285 283 281 279 277
201 206 213 227 247 270 285 294 301 304 307 310 313 315 316 318 318 318 319 321 321 323 325 325 327 328 330 330 329 330 334 335 332 330 330 326 317 309 302 296 292 291 292 292 292 291 292 291 292 293 294 293 292 292 292 293 293 291 290 289 288 288 289 291 290 285 283 283 282 284 288 288 288 290 292 293 290 286 284 282 283 284 284 282 278
203 208 216 230 248 266 280 288 293 298 302 308 311 313 314 316 316 316 317 318 319 321 322 324 325 326 329 331 329 329 333 334 331 330 330 325 314 306 300 296 292 289 289 291 292 291 290 289 289 289 288 288 289 290 291 292 291 289 287 287 287 287 287 287 284 279 280 282 282 283 285 286 287 288 290 291 290 290 292 291 292 297 295 290 285
206 211 219 233 249 265 276 282 289 297 303 307 310 312 314 315 314 315 316 316 319 321 322 323 325 326 329 332 330 329 331 332 330 328 329 324 314 307 300 294 291 289 289 291 292 291 288 286 285 284 283 284 286 289 291 291 290 288 286 286 286 283 282 284 284 280 279 279 279 280 282 285 288 289 291 292 291 292 294 292 294 298 295 290 290
209 214 222 235 250 264 274 282 290 298 302 306 309 310 312 313 313 315 316 317 318 320 321 322 323 325 328 331 331 328 326 328 329 326 326 324 313 304 300 295 293 292 292 291 290 289 291 292 290 284 281 283 286 289 291 291 290 287 285 284 281 279 280 285 286 285 282 280 279 280 280 282 285 288 289 289 289 288 286 285 288 290 286 283 286
211 215 225 238 251 264 274 283 291 297 300 304 307 309 310 311 312 313 315 316 317 318 320 320 320 324 327 329 330 326 322 324 328 327 327 324 311 303 301 297 295 295 295 294 293 292 291 294 296 291 286 287 291 292 292 291 287 285 283 282 278 278 282 286 286 285 284 282 282 283 284 285 287 287 287 286 285 283 280 280 282 281 279 279 280
213 217 227 240 252 265 276 284 290 295 298 301 304 307 309 309 310 312 313 314 315 315 318 319 319 322 326 328 328 325 321 322 326 330 332 322 309 303 301 297 296 296 295 294 294 294 292 294 298 297 292 291 293 294 293 291 289 287 285 282 279 281 287 288 286 287 287 288 291 292 291 292 291 288 286 284 283 281 279 278 277 276 276 278 277
214 220 230 243 255 267 276 282 288 292 296 299 301 304 306 307 308 311 312 313 313 314 316 318 319 320 324 326 327 326 325 325 328 334 337 323 308 305 302 298 296 296 295 295 295 296 295 293 294 296 295 295 295 293 292 293 295 293 290 288 287 291 294 295 295 299 300 299 301 299 295 293 291 288 288 287 285 283 281 278 275 274 273 274 276
218 224 233 246 256 266 275 280 285 290 293 295 298 301 303 304 306 308 310 311 312 314 316 318 319 319 321 324 326 327 328 330 332 337 337 323 309 307 303 300 300 300 298 298 297 296 295 292 293 296 297 296 294 292 294 298 302 300 298 297 297 298 302 303 305 307 305 301 300 297 293 291 290 290 290 289 287 287 286 282 278 274 271 270 272
220 227 237 249 259 267 273 278 283 287 290 291 294 298 300 301 303 306 309 310 311 313 316 318 318 318 319 324 328 329 332 335 338 340 336 321 309 310 308 304 304 303 299 297 296 296 297 296 295 296 297 297 297 299 303 306 308 308 306 305 304 306 310 312 310 308 304 300 297 293 290 290 290 290 289 288 288 288 287 285 282 278 274 271 271
221 231 242 252 261 266 270 275 279 282 285 288 291 295 298 299 301 305 308 309 311 312 315 318 318 318 321 326 330 332 335 336 336 336 330 317 311 312 310 307 306 303 300 299 298 298 297 296 296 298 301 303 304 305 308 310 310 311 310 309 310 311 311 310 309 307 303 297 293 289 288 289 289 288 287 288 289 289 286 284 283 282 279 276 275
224 234 245 252 258 263 266 270 275 278 282 286 289 293 296 297 300 305 307 308 309 311 314 316 317 319 325 328 328 330 332 329 329 329 323 314 314 316 313 311 310 306 303 302 301 300 299 300 302 304 305 306 309 311 312 310 309 309 309 309 310 309 308 308 308 305 299 294 292 290 289 289 288 287 289 291 290 288 285 282 282 284 284 283 282
226 234 243 250 255 260 264 268 272 276 280 283 287 292 295 297 300 304 306 307 308 309 312 314 316 320 323 322 322 325 326 324 326 328 323 319 322 323 318 315 312 310 308 306 305 305 305 305 306 307 307 308 313 316 314 310 309 312 314 315 313 312 312 311 308 304 300 297 295 293 292 293 294 294 296 296 292 288 286 282 281 282 283 282 284
228 235 241 247 254 260 265 268 270 274 277 281 284 289 293 297 300 302 305 306 306 307 309 312 315 318 318 317 318 320 321 322 323 322 322 324 326 323 319 317 318 318 317 315 313 312 311 310 310 309 309 309 312 314 316 316 319 323 324 323 320 317 316 312 307 303 300 297 296 295 294 297 299 300 302 300 296 294 294 288 281 279 279 279 283
228 234 240 246 253 259 264 267 269 271 274 278 282 287 290 292 293 297 301 303 303 305 307 308 311 313 312 312 313 314 315 317 317 316 319 323 322 320 322 325 327 327 325 323 320 315 312 313 315 316 318 321 323 326 330 331 331 329 327 326 324 321 320 318 312 306 301 298 298 299 299 302 303 302 302 298 294 297 300 295 285 280 280 278 278
227 233 239 244 249 255 260 264 268 272 274 276 279 283 286 289 292 296 299 302 304 304 303 303 307 310 309 306 305 305 308 311 311 312 316 318 318 321 328 331 331 332 332 328 322 318 318 325 332 336 338 340 339 338 338 337 334 331 329 327 324 323 323 321 316 312 309 308 307 306 306 305 302 300 300 296 293 297 300 295 286 282 280 274 270
227 232 237 241 245 251 256 260 266 272 275 279 281 282 284 289 295 298 299 302 303 295 288 290 297 301 301 299 298 296 300 304 308 312 315 317 320 324 330 332 333 337 337 331 330 336 345 350 352 351 346 342 340 338 337 335 331 328 326 325 324 324 324 321 319 316 315 314 312 309 307 304 301 301 302 301 300 301 300 293 285 280 277 271 268
228 233 239 242 245 248 253 258 263 270 276 282 287 291 292 291 291 293 296 299 295 283 278 282 289 292 291 293 295 296 298 303 308 312 315 319 323 328 332 334 338 343 341 337 345 360 3 356 351 348 344 339 335 331 328 327 326 324 324 325 327 327 324 320 320 319 317 315 312 309 307 305 304 303 304 305 305 305 302 296 288 278 271 270 269
232 237 241 243 244 247 252 257 263 269 275 282 288 295 300 300 297 295 296 298 299 293 281 278 285 291 296 299 300 300 303 307 310 314 318 322 326 331 332 330 335 343 343 343 355 5 1 352 347 344 339 334 330 328 327 326 325 325 324 323 325 327 325 321 319 317 313 311 310 310 309 308 307 307 307 308 308 307 306 302 295 284 275 271 270
235 238 239 240 243 247 253 260 265 270 275 281 286 290 296 301 304 302 300 302 307 305 280 266 277 289 297 302 304 304 305 309 313 318 321 325 331 334 328 325 331 343 347 352 360 0 354 348 343 339 337 335 333 333 332 330 328 327 326 322 322 324 326 325 323 320 315 311 309 311 311 310 309 310 309 309 308 307 306 306 302 296 287 279 275
235 238 239 241 244 249 255 262 267 272 276 281 285 288 292 296 301 303 305 308 313 312 302 295 299 301 300 304 309 311 312 314 316 320 325 331 335 332 322 320 331 347 355 0 2 356 350 347 343 340 339 337 336 335 334 333 331 329 328 326 324 325 327 328 327 325 322 318 314 314 314 313 313 313 311 309 309 308 308 308 308 303 296 289 285
235 237 238 242 246 251 257 262 267 272 277 280 284 288 291 293 294 296 300 304 307 308 310 316 328 329 315 309 310 311 315 318 320 324 331 334 331 322 317 324 340 352 357 1 360 354 350 347 341 340 340 339 338 337 335 334 333 331 330 329 329 328 328 328 328 328 326 322 318 318 318 316 314 314 312 309 308 307 307 307 308 307 303 297 292
234 236 238 243 247 252 256 262 267 271 275 280 283 285 288 290 291 292 295 295 297 301 306 314 324 332 323 311 310 311 317 322 323 324 328 329 324 323 330 341 349 351 352 355 353 349 347 344 341 341 342 340 339 338 336 335 335 334 333 331 329 327 327 327 326 327 327 324 322 320 319 317 316 315 313 310 307 305 304 304 305 305 305 303 299
235 237 240 243 247 250 254 260 266 271 275 278 281 283 285 287 288 290 291 292 294 298 302 310 319 325 328 330 329 328 333 334 320 315 318 323 326 334 346 351 349 347 348 351 349 346 344 345 345 344 343 342 340 339 338 338 337 336 336 335 330 325 324 324 324 326 328 327 325 323 320 318 317 316 314 311 308 306 304 305 305 306 306 306 303
235 237 239 241 243 247 252 257 263 268 272 274 276 279 282 284 285 286 288 291 294 297 301 307 314 319 326 333 333 333 340 338 323 316 324 335 339 344 350 352 350 349 348 349 349 345 343 344 346 345 344 343 342 341 340 340 339 338 337 335 330 328 328 328 328 331 331 329 328 326 323 320 319 318 316 313 308 306 306 307 309 309 308 306 306
230 232 234 237 242 246 251 256 261 265 270 273 275 277 278 280 283 285 288 291 292 294 300 304 307 313 322 327 330 339 341 332 320 319 329 339 343 346 349 348 348 349 348 347 347 345 342 343 344 344 344 344 343 344 343 342 340 339 337 334 332 333 335 335 333 334 335 333 331 330 327 324 322 320 317 313 309 307 308 309 310 310 308 306 306
227 228 230 235 240 244 250 256 261 266 271 273 274 274 275 278 283 285 287 290 291 294 300 302 304 311 319 321 326 337 329 314 308 313 322 330 337 343 346 345 346 347 346 346 346 344 342 342 343 343 343 345 345 345 345 343 342 340 338 335 333 334 337 338 337 337 337 336 335 333 331 329 327 322 318 315 313 312 312 312 311 310 309 307 307
223 224 228 233 237 241 247 253 258 263 268 268 270 273 275 278 282 284 285 287 289 294 298 299 301 310 315 315 321 321 305 297 299 309 318 326 333 338 340 342 344 345 345 345 345 343 341 342 343 343 344 345 346 346 346 345 343 342 339 337 334 335 337 339 340 341 340 338 336 334 333 332 329 324 319 319 318 317 317 315 313 312 311 310 310
219 222 226 231 234 239 245 250 255 259 262 264 269 272 275 278 280 281 282 285 288 292 296 298 302 308 310 310 314 307 296 296 303 312 318 325 330 333 337 340 341 343 345 347 346 343 340 340 342 342 343 345 346 346 346 345 343 343 341 338 335 335 337 339 342 343 342 339 336 335 334 334 332 328 325 324 321 319 320 320 319 320 320 318 317
219 223 226 229 233 239 246 251 253 255 258 263 268 270 272 276 279 279 281 285 287 289 292 296 302 306 305 306 308 304 301 305 311 314 318 324 326 329 334 336 337 340 343 345 344 342 338 337 338 339 341 344 344 344 344 344 343 343 341 337 334 336 338 340 341 342 343 342 341 340 339 339 339 337 335 333 327 323 324 326 328 331 332 330 329
219 223 226 230 235 241 246 250 254 257 260 264 267 270 272 276 278 280 282 283 286 289 290 293 299 303 303 304 305 305 305 309 311 314 317 320 322 325 329 330 331 334 337 339 340 339 337 335 335 335 337 341 342 340 340 341 343 343 342 338 334 334 337 340 341 342 343 343 343 343 342 342 342 342 342 342 338 332 329 330 331 336 340 342 342
221 225 229 233 238 243 248 253 256 260 262 264 266 271 274 277 279 281 282 282 285 288 289 292 297 299 300 301 303 304 306 308 309 311 314 316 318 321 323 324 326 328 329 332 334 334 333 334 333 332 334 337 339 338 338 339 341 343 344 341 334 331 334 337 338 341 344 345 345 345 345 344 344 344 344 345 344 341 338 336 337 340 345 348 351
227 229 234 238 243 247 252 255 257 258 260 263 267 271 274 276 278 280 281 283 285 287 289 293 296 296 297 299 300 301 303 304 305 307 309 311 313 316 317 318 320 320 322 325 327 328 329 330 329 330 331 332 334 336 336 336 337 339 341 343 340 336 336 338 337 339 343 346 347 348 348 348 347 348 348 348 349 350 348 347 347 347 347 350 356
230 233 237 242 247 251 254 256 257 258 260 263 267 270 273 276 278 280 282 284 286 288 290 294 295 295 296 297 297 298 301 301 301 303 305 307 309 312 313 313 314 314 316 319 320 321 323 324 324 326 327 327 329 332 332 332 333 333 335 339 341 340 343 345 342 340 342 344 346 348 350 351 351 352 352 352 353 353 353 353 354 354 353 354 358
231 235 239 243 248 252 255 258 260 262 264 266 269 271 274 276 278 281 283 285 287 289 291 294 295 295 296 296 296 297 298 299 299 301 302 304 307 310 310 310 311 311 312 314 316 316 318 319 319 321 322 323 324 326 327 328 329 326 326 332 335 337 343 348 345 339 339 343 345 347 350 351 352 352 354 355 355 355 355 355 356 357 358 358 359
231 235 241 246 250 254 260 263 265 266 268 270 271 272 274 277 279 282 285 286 287 289 292 293 295 296 296 296 297 298 299 299 299 301 303 305 308 310 310 310 311 311 311 312 314 315 315 316 316 316 317 319 320 320 322 324 324 321 319 321 324 328 337 343 340 335 336 342 346 347 349 351 353 354 355 356 357 357 357 358 358 358 360 1 2
232 237 243 248 253 259 264 266 268 268 269 271 272 274 277 278 280 282 286 287 288 290 292 294 295 297 298 299 300 300 300 301 301 303 306 308 310 311 312 311 311 312 313 313 314 315 315 315 315 315 315 315 316 316 316 318 319 318 315 312 312 319 329 333 331 332 333 338 343 347 349 350 352 355 356 358 360 0 1 3 3 3 3 5 6
234 240 246 251 257 263 266 267 269 271 272 274 276 277 278 279 281 283 285 286 287 290 292 293 294 296 297 299 301 301 301 302 304 306 309 311 312 313 313 313 312 313 313 313 314 315 315 315 316 316 315 315 314 313 313 313 314 315 313 309 306 311 318 319 323 333 336 333 335 342 347 349 351 355 358 360 2 3 4 6 8 9 10 12 13